Weather History for San Angelo, TX

Change the Weather History Date:

Tuesday, November 1, 2011

  Actual Average Record
Temperature  
Mean Temperature 71 °F 61 °F  
Max Temperature 83 °F 74 °F 89 °F (1945)
Min Temperature 58 °F 48 °F 27 °F (1917)
Degree Days  
Heating Degree Days 0 6  
Month to date heating degree days 0 6  
Since 1 July heating degree days 65 97  
Cooling Degree Days 6 2  
Month to date cooling degree days 6 2  
Year to date cooling degree days 3719 2486  
Growing Degree Days 20 (Base 50)    
Moisture  
Dew Point 50 °F    
Average Humidity 52    
Maximum Humidity 75    
Minimum Humidity 28    
Precipitation  
Precipitation 0.00 in 0.06 in 0.56 in (1946)
Month to date precipitation 0.00 0.06  
Year to date precipitation 7.92 19.32  
Snow  
Snow 0.00 in 0.00 in 0.00 in (2002)
Month to date snowfall 0.0 0.0  
Since 1 July snowfall 0.0 0.0  
Snow Depth 0.00 in    
Sea Level Pressure  
Sea Level Pressure 29.97 in    
Wind  
Wind Speed 14 mph (South)    
Max Wind Speed 26 mph    
Max Gust Speed 35 mph    
Visibility 10 miles    
Events      
T = Trace of Precipitation, MM = Missing Value Source: NWS Daily Summary

Daily Weather History Graph

Daily Weather History Graph

Search for Another Location

Airport:

Trip Planner

Search our weather history database for the weather conditions in past years. The results will help you decide how hot, cold, wet, or windy it might be!

Date:

Astronomy

Nov. 01, 2011 Rise Set
Actual Time 7:57 AM CDT 6:53 PM CDT
Civil Twilight 7:32 AM CDT 7:18 PM CDT
Nautical Twilight 7:03 AM CDT 7:46 PM CDT
Astronomical Twilight 6:35 AM CDT 8:15 PM CDT
Moon 1:41 PM CDT (11/1) No Moon Set
Length of Visible Light 11h 45m
Length of Day
10h 55m
Waxing Crescent, 40% of the Moon is Illuminated
Nov 1
Waxing Crescent
Nov 2
First Quarter
Nov 10
Full
Nov 18
Last Quarter
Nov 25
New

Hourly Weather History & Observations

Time (CDT) Temp. Dew Point Humidity Pressure Visibility Wind Dir Wind Speed Gust Speed Precip Events Conditions
12:51 AM 61.0 °F 50.0 °F 67% 30.04 in 10.0 mi South 4.6 mph - N/A   Clear
1:51 AM 61.0 °F 50.0 °F 67% 30.03 in 10.0 mi South 8.1 mph - N/A   Clear
2:51 AM 61.0 °F 50.0 °F 67% 30.02 in 10.0 mi South 11.5 mph - N/A   Clear
3:51 AM 61.0 °F 48.9 °F 64% 29.99 in 10.0 mi South 17.3 mph 24.2 mph N/A   Clear
4:51 AM 60.1 °F 48.0 °F 64% 30.00 in 10.0 mi South 19.6 mph 26.5 mph N/A   Clear
5:51 AM 59.0 °F 48.2 °F 67% 30.05 in 10.0 mi South 10.4 mph 19.6 mph N/A   Clear
6:51 AM 59.0 °F 50.0 °F 72% 30.01 in 10.0 mi South 15.0 mph 21.9 mph N/A   Clear
7:51 AM 59.0 °F 51.1 °F 75% 30.03 in 10.0 mi SSW 13.8 mph 20.7 mph N/A   Clear
8:51 AM 60.1 °F 52.0 °F 75% 30.04 in 10.0 mi SSW 10.4 mph 17.3 mph N/A   Clear
9:51 AM 64.0 °F 53.1 °F 67% 30.05 in 10.0 mi SSW 18.4 mph 29.9 mph N/A   Clear
10:51 AM 68.0 °F 53.1 °F 59% 30.03 in 10.0 mi South 18.4 mph 31.1 mph N/A   Clear
11:51 AM 73.0 °F 54.0 °F 51% 30.01 in 10.0 mi South 16.1 mph 24.2 mph N/A   Clear
12:51 PM 75.9 °F 52.0 °F 43% 29.99 in 10.0 mi South 19.6 mph 28.8 mph N/A   Clear
1:51 PM 78.8 °F 51.8 °F 39% 30.00 in 10.0 mi South 17.3 mph 28.8 mph N/A   Clear
2:51 PM 81.0 °F 50.0 °F 34% 29.91 in 10.0 mi South 17.3 mph 23.0 mph N/A   Clear
3:51 PM 82.0 °F 48.9 °F 31% 29.89 in 10.0 mi South 16.1 mph 24.2 mph N/A   Clear
4:51 PM 82.0 °F 46.0 °F 28% 29.88 in 10.0 mi SSW 19.6 mph 26.5 mph N/A   Clear
5:51 PM 80.1 °F 46.9 °F 31% 29.88 in 10.0 mi South 17.3 mph 21.9 mph N/A   Clear
6:51 PM 77.0 °F 46.9 °F 34% 29.88 in 10.0 mi South 9.2 mph - N/A   Clear
7:51 PM 73.9 °F 48.0 °F 40% 29.90 in 10.0 mi South 8.1 mph - N/A   Clear
8:51 PM 72.0 °F 48.9 °F 44% 29.92 in 10.0 mi SSE 11.5 mph - N/A   Clear
9:51 PM 71.1 °F 50.0 °F 47% 29.91 in 10.0 mi South 15.0 mph 25.3 mph N/A   Clear
10:51 PM 69.8 °F 50.0 °F 49% 29.96 in 10.0 mi South 11.5 mph 18.4 mph N/A   Clear
11:51 PM 66.9 °F 50.0 °F 54% 29.89 in 10.0 mi South 11.5 mph 18.4 mph N/A   Clear